| time (UTC) | temp C | wind direction | speed KPH | gust KPH | rain 1hr cm | rain 24hr cm | rain mn cm | humidity % | barometer mb |
| 20260504082000 | 3 | 203 | 3.2 | 11.3 | 0.00 | 0.00 | 0.23 | 91 | 1003.0 |
| 20260504081000 | 3 | 240 | 4.8 | 8.0 | 0.00 | 0.00 | 0.23 | 92 | 1003.0 |
| 20260504050000 | 3 | 239 | 4.8 | 11.3 | 0.00 | 0.00 | 0.13 | 92 | 1003.0 |
| 20260504045000 | 3 | 241 | 4.8 | 11.3 | 0.03 | 0.00 | 0.13 | 92 | 1003.0 |
| 20260504044000 | 3 | 168 | 6.4 | 11.3 | 0.03 | 0.00 | 0.13 | 92 | 1003.0 |
| 20260504043000 | 3 | 267 | 6.4 | 12.9 | 0.00 | 0.00 | 0.08 | 91 | 1003.0 |
| 20260504042000 | 3 | 246 | 9.7 | 12.9 | 0.00 | 0.00 | 0.08 | 91 | 1003.0 |
| 20260504041000 | 3 | 236 | 6.4 | 14.5 | 0.00 | 0.00 | 0.08 | 92 | 1003.0 |
| 20260504040000 | 3 | 244 | 3.2 | 9.7 | 0.00 | 0.00 | 0.08 | 91 | 1003.0 |
| 20260504035000 | 3 | 223 | 1.6 | 9.7 | 0.00 | 0.00 | 0.08 | 91 | 1003.0 |
| 20260504034000 | 3 | 247 | 4.8 | 9.7 | 0.00 | 0.00 | 0.08 | 92 | 1003.0 |
| 20260504033000 | 3 | 240 | 6.4 | 14.5 | 0.00 | 0.00 | 0.08 | 93 | 1003.0 |
| 20260504032000 | 3 | 240 | 6.4 | 11.3 | 0.00 | 0.00 | 0.08 | 92 | 1003.0 |
| 20260504031000 | 3 | 260 | 6.4 | 8.0 | 0.00 | 0.00 | 0.08 | 92 | 1003.0 |
| 20260504030000 | 3 | 247 | 6.4 | 8.0 | 0.00 | 0.00 | 0.08 | 92 | 1003.0 |
| 20260504025000 | 3 | 239 | 4.8 | 11.3 | 0.00 | 0.00 | 0.08 | 93 | 1003.0 |
| 20260504024000 | 3 | 259 | 4.8 | 8.0 | 0.00 | 0.00 | 0.08 | 93 | 1003.0 |
| 20260504023000 | 3 | 236 | 3.2 | 8.0 | 0.00 | 0.00 | 0.08 | 92 | 1003.0 |
| 20260504022000 | 3 | 259 | 3.2 | 6.4 | 0.00 | 0.00 | 0.08 | 93 | 1003.0 |
| 20260504021000 | 4 | 247 | 1.6 | 4.8 | 0.00 | 0.00 | 0.08 | 93 | 1003.0 |
| 20260504020000 | 4 | 250 | 4.8 | 4.8 | 0.00 | 0.00 | 0.08 | 92 | 1003.0 |
| 20260504015000 | 3 | 252 | 0.0 | 1.6 | 0.03 | 0.00 | 0.08 | 92 | 1003.0 |
| 20260504014000 | 3 | 176 | 1.6 | 3.2 | 0.00 | 0.00 | 0.03 | 92 | 1003.0 |
| 20260504013000 | 3 | 235 | 1.6 | 3.2 | 0.00 | 0.00 | 0.03 | 92 | 1003.0 |
| 20260504012000 | 3 | 235 | 0.0 | 4.8 | 0.00 | 0.00 | 0.03 | 92 | 1003.0 |
| 20260504011000 | 3 | 247 | 1.6 | 6.4 | 0.00 | 0.00 | 0.03 | 92 | 1003.0 |
| 20260504010000 | 3 | 235 | 1.6 | 4.8 | 0.00 | 0.00 | 0.03 | 92 | 1003.0 |
| 20260504005000 | 3 | 265 | 4.8 | 8.0 | 0.00 | 0.00 | 0.03 | 91 | 1003.0 |
| 20260504004000 | 3 | 275 | 4.8 | 9.7 | 0.00 | 0.00 | 0.03 | 91 | 1003.0 |
| 20260504003000 | 4 | 275 | 3.2 | 6.4 | 0.00 | 0.00 | 0.03 | 91 | 1003.0 |
| 20260504002000 | 4 | 332 | 3.2 | 8.0 | 0.00 | 0.00 | 0.03 | 91 | 1003.0 |
| 20260504001000 | 4 | 309 | 4.8 | 11.3 | 0.00 | 0.00 | 0.03 | 92 | 1003.0 |
| 20260504000000 | 4 | 269 | 4.8 | 9.7 | 0.00 | 0.00 | 0.03 | 91 | 1003.0 |
| 20260503235000 | 4 | 321 | 3.2 | 8.0 | 0.00 | 0.00 | 0.03 | 91 | 1003.0 |
| 20260503234000 | 4 | 271 | 8.0 | 9.7 | 0.00 | 0.00 | 0.03 | 91 | 1003.0 |
| 20260503233000 | 4 | 345 | 0.0 | 3.2 | 0.00 | 0.00 | 0.03 | 91 | 1003.0 |
| 20260503232000 | 4 | 305 | 4.8 | 8.0 | 0.00 | 0.00 | 0.03 | 91 | 1003.0 |
| 20260503231000 | 4 | 242 | 1.6 | 6.4 | 0.00 | 0.00 | 0.03 | 91 | 1003.0 |
| 20260503230000 | 4 | 349 | 3.2 | 6.4 | 0.00 | 0.00 | 0.03 | 91 | 1003.0 |
| 20260503225000 | 4 | 235 | 4.8 | 8.0 | 0.03 | 0.00 | 0.03 | 91 | 1003.0 |
| 20260503224000 | 4 | 297 | 8.0 | 11.3 | 0.03 | 0.00 | 0.03 | 91 | 1003.0 |
| 20260503223000 | 4 | 257 | 8.0 | 9.7 | 0.03 | 0.00 | 0.03 | 91 | 1003.0 |
| 20260503222000 | 4 | 243 | 6.4 | 9.7 | 0.03 | 0.00 | 0.03 | 91 | 1003.0 |
| 20260503221000 | 4 | 300 | 4.8 | 12.9 | 0.00 | 0.00 | 0.00 | 91 | 1003.0 |
| 20260503220000 | 4 | 311 | 6.4 | 8.0 | 0.00 | 0.00 | 0.00 | 90 | 1003.0 |
| 20260503215000 | 4 | 283 | 3.2 | 9.7 | 0.00 | 0.00 | 0.00 | 90 | 1003.0 |
| 20260503214000 | 4 | 282 | 8.0 | 9.7 | 0.00 | 0.00 | 0.00 | 90 | 1003.0 |
| 20260503213000 | 4 | 284 | 6.4 | 12.9 | 0.00 | 0.00 | 0.00 | 90 | 1003.0 |
| 20260503212000 | 4 | 272 | 11.3 | 16.1 | 0.00 | 0.00 | 0.00 | 91 | 1003.0 |
| 20260503211000 | 4 | 286 | 6.4 | 14.5 | 0.00 | 0.00 | 0.00 | 89 | 1003.0 |
| 20260503210000 | 4 | 260 | 9.7 | 17.7 | 0.00 | 0.00 | 0.00 | 90 | 1003.0 |
| 20260503205000 | 5 | 278 | 8.0 | 16.1 | 0.03 | 0.00 | 1.57 | 90 | 1003.0 |
| 20260503204000 | 5 | 296 | 4.8 | 16.1 | 0.03 | 0.00 | 1.57 | 90 | 1003.0 |
| 20260503203000 | 5 | 359 | 4.8 | 12.9 | 0.00 | 0.00 | 1.55 | 90 | 1004.0 |
| 20260503202000 | 5 | 337 | 6.4 | 14.5 | 0.00 | 0.00 | 1.55 | 90 | 1004.0 |
| 20260503201000 | 5 | 268 | 6.4 | 16.1 | 0.00 | 0.00 | 1.55 | 89 | 1004.0 |
| 20260503200000 | 5 | 280 | 8.0 | 12.9 | 0.00 | 0.00 | 1.55 | 88 | 1004.0 |
| 20260503195000 | 5 | 281 | 12.9 | 22.5 | 1.55 | 0.00 | 1.55 | 90 | 1004.0 |
| 20260503194000 | 5 | 308 | 8.0 | 14.5 | 1.55 | 0.00 | 1.55 | 89 | 1003.0 |
| 20260503193002 | 5 | 285 | 8.0 | 14.5 | 1.45 | 0.00 | 1.45 | 89 | 1003.0 |
| 20260503192000 | 5 | 295 | 12.9 | 19.3 | 1.45 | 0.00 | 1.45 | 89 | 1003.0 |
| 20260503191000 | 5 | 310 | 9.7 | 16.1 | 1.40 | 0.00 | 1.40 | 88 | 1003.0 |
| 20260503190000 | 5 | 318 | 9.7 | 14.5 | 0.00 | 0.00 | 0.00 | 88 | 1003.0 |
| 20260503185000 | 5 | 348 | 8.0 | 16.1 | 0.00 | 0.00 | 0.00 | 88 | 1003.0 |
| 20260503184000 | 5 | 281 | 9.7 | 16.1 | 0.00 | 0.00 | 0.00 | 88 | 1003.0 |
| 20260503183000 | 5 | 321 | 8.0 | 14.5 | 0.00 | 0.00 | 0.00 | 87 | 1003.0 |
| 20260503182000 | 5 | 335 | 8.0 | 16.1 | 0.00 | 0.00 | 0.00 | 87 | 1003.0 |
| 20260503181000 | 5 | 344 | 8.0 | 19.3 | 0.00 | 0.00 | 0.00 | 86 | 1003.0 |
| 20260503180000 | 5 | 326 | 9.7 | 19.3 | 0.00 | 0.00 | 0.00 | 85 | 1003.0 |
| 20260503175000 | 5 | 309 | 12.9 | 24.1 | 0.00 | 0.00 | 0.00 | 85 | 1003.0 |
| 20260503174000 | 6 | 343 | 12.9 | 20.9 | 0.00 | 0.00 | 0.00 | 82 | 1003.0 |
| 20260503173000 | 6 | 309 | 16.1 | 24.1 | 0.00 | 0.00 | 0.00 | 80 | 1003.0 |
| 20260503172001 | 6 | 302 | 17.7 | 25.7 | 0.00 | 0.00 | 0.00 | 79 | 1003.0 |
| 20260503171000 | 6 | 336 | 16.1 | 22.5 | 0.00 | 0.00 | 0.00 | 81 | 1003.0 |
| 20260503151000 | 7 | 307 | 16.1 | 24.1 | 0.00 | 0.00 | 0.00 | 71 | 1006.0 |
| 20260503131000 | 9 | 308 | 14.5 | 27.4 | 0.00 | 0.00 | 0.00 | 65 | 1006.0 |